Weather Roundup
Issued by NWS

Home | Current Version | Previous Version | Text Only | Print | Product List | Glossary On
Versions: 1 2 3 4 5 6 7 8 9 10 11 12 13 14 15 16 17 18 19 20 21 22 23 24 25 26 27 28 29 30 31 32 33 34 35 36 37 38 39 40 41 42 43 44 45 46 47 48 49 50
613
NZUS93 KARX 160410
HRRWXR

CURRENT HOURLY OBSERVATIONS ACROSS
MUCH OF THE UPPER MISSISSIPPI VALLEY
NATIONAL WEATHER SERVICE LA CROSSE WI
1000 PM CST SUN JAN 15 2017


...SOUTHEAST MINNESOTA...


CITY           SKY/WX    TMP DP  RH WIND       PRES   REMARKS
ROCHESTER      CLOUDY    18  15  88 S9        30.22F WCI   7
ROCHESTER/MAYO FAIR      21  17  85 S6        30.23F WCI  14
WINONA           N/A     12  10  92 CALM      30.28F
AUSTIN         CLOUDY    18  14  86 SE5       30.23S WCI  11
ALBERT LEA     CLOUDY    21  18  86 SE6       30.21F WCI  14
DODGE CENTER   CLOUDY    16  12  86 CALM      30.21F
PRESTON        CLOUDY    18  14  84 S5        30.24F WCI  11
OWATONNA       PTCLDY    19  16  86 S9        30.21F WCI   9
FARIBAULT      CLOUDY    21  18  86 S6        30.22S WCI  14
$$

...ELSEWHERE IN MINNESOTA...


CITY           SKY/WX    TMP DP  RH WIND       PRES   REMARKS
MINNEAPOLIS    CLOUDY    20  16  84 SE6       30.23R WCI  12
INTNL FALLS    CLOUDY    21  13  71 SW6       30.01R WCI  13
DULUTH         CLOUDY    22  16  78 W12       30.09S WCI  10
RED WING       CLOUDY    18  14  86 SE3       30.25R
REDWOOD FALLS  PTCLDY    19  14  81 S9        30.17S WCI   8
MANKATO        CLOUDY    21  18  88 S8        30.22S WCI  11
WORTHINGTON    CLOUDY    25  18  74 S5        30.15F WCI  19
FAIRMONT       CLOUDY    23  19  85 S8        30.20S WCI  14
$$

...SOUTHWEST WISCONSIN...


CITY           SKY/WX    TMP DP  RH WIND       PRES   REMARKS
PRAIRIE DU CHI CLOUDY    22  16  79 CALM      30.29S
BOSCOBEL       CLOUDY    19  15  84 CALM      30.30S FOG
LONE ROCK      CLOUDY    18  14  84 CALM      30.29F
PLATTEVILLE    PTCLDY    27  22  80 SE5       30.28S WCI  22
FORT MC COY    CLOUDY    10   8  93 CALM      30.28S
CAMP DOUGLAS   CLOUDY    11   8  87 CALM      30.26S
MAUSTON-NEW LI CLOUDY    15  13  89 CALM      30.26S
VIROQUA        FAIR      24  16  71 CALM      30.25S
WIS DELLS      CLOUDY    20  14  76 CALM      30.27S
$$

...ELSEWHERE IN WISCONSIN...


CITY           SKY/WX    TMP DP  RH WIND       PRES   REMARKS
MILWAUKEE      CLOUDY    27  19  72 S5        30.30F WCI  22
MADISON        MOCLDY    21  16  81 CALM      30.28F
GREEN BAY      CLOUDY    15  11  83 SW6       30.28F WCI   6
EAU CLAIRE     PTCLDY    14  11  87 CALM      30.24R
BLACK RVR FLS  FAIR       2  -2  83 CALM      30.26S
MEDFORD        PTCLDY    13   9  82 S6        30.20S WCI   4
WAUSAU         CLOUDY     4   3  96 CALM      30.23S
WIS RAPIDS     CLOUDY     9   6  88 CALM      30.27S
MARSHFIELD     CLOUDY    10   8  92 SW3       30.22S FOG
RICE LAKE      CLOUDY     2  -1  86 CALM      30.22S
$$

...NORTHEAST IOWA...


CITY           SKY/WX    TMP DP  RH WIND       PRES   REMARKS
WATERLOO       PTCLDY    27  21  78 E6        30.25S WCI  20
DUBUQUE        CLOUDY    27  17  66 SE3       30.27S
DECORAH        CLOUDY    21  18  86 SE5       30.24F WCI  15
MASON CITY     CLOUDY    19  15  84 SE5       30.22F WCI  12
CHARLES CITY   CLOUDY    21  19  93 E7        30.24F WCI  13
OELWEIN        CLOUDY    27  23  86 E6        30.25S WCI  20
$$

...ELSEWHERE IN IOWA...


CITY           SKY/WX    TMP DP  RH WIND       PRES   REMARKS
DES MOINES     FRZ RAIN  31  28  89 E8        30.21S FOG     WCI  23
IOWA CITY      CLOUDY    33  20  58 E5        30.28S WCI  29
FORT DODGE     CLOUDY    28  21  74 E5        30.20S WCI  23
MARSHALLTOWN   CLOUDY    30  21  69 E6        30.22S WCI  24
CEDAR RAPIDS   CLOUDY    30  17  58 E6        30.25S WCI  24
$$

...NORTHERN ILLINOIS...


CITY           SKY/WX    TMP DP  RH WIND       PRES   REMARKS
CHICAGO-OHARE  CLOUDY    29  23  78 CALM      30.31F
CHICAGO-MIDWAY CLOUDY    32  25  75 E5        30.31F WCI  27
MOLINE         CLOUDY    33  25  72 E6        30.27S WCI  28
ROCKFORD       CLOUDY    28  22  78 E5        30.31F WCI  23
PEORIA         CLOUDY    33  30  88 E5        30.29S FOG     WCI  29
$$

NOTE: "FAIR" INDICATES FEW OR NO CLOUDS BELOW 12,000 FEET WITH NO
SIGNIFICANT WEATHER AND/OR OBSTRUCTIONS TO VISIBILITY. WIND
SPEEDS ARE IN MILES-PER-HOUR.




USA.gov is the U.S. government's official web portal to all federal, state and local government web resources and services.